Weather History for Kendall, FL

Change the Weather History Date:

Thursday, November 3, 2011

  Actual Average Record
Temperature  
Mean Temperature 74 °F -  
Max Temperature 82 °F 84 °F 87 °F (1992)
Min Temperature 66 °F 63 °F 55 °F (2012)
Cooling Degree Days 9    
Growing Degree Days 24 (Base 50)    
Moisture  
Dew Point 62 °F    
Average Humidity 70    
Maximum Humidity 87    
Minimum Humidity 52    
Precipitation  
Precipitation 0.00 in - - ()
Sea Level Pressure  
Sea Level Pressure 30.03 in    
Wind  
Wind Speed 7 mph (ENE)    
Max Wind Speed 15 mph    
Max Gust Speed 22 mph    
Visibility 10 miles    
Events      
Averages and records for this station are not official NWS values.
T = Trace of Precipitation, MM = Missing Value Source: NWS Daily Summary

Daily Weather History Graph

Daily Weather History Graph

Search for Another Location

Airport:

Trip Planner

Search our weather history database for the weather conditions in past years. The results will help you decide how hot, cold, wet, or windy it might be!

Date:

Astronomy

Nov. 03, 2011 Rise Set
Actual Time 7:31 AM EDT 6:39 PM EDT
Civil Twilight 7:07 AM EDT 7:02 PM EDT
Nautical Twilight 6:40 AM EDT 7:30 PM EDT
Astronomical Twilight 6:12 AM EDT 7:57 PM EDT
Moon 2:26 PM EDT (11/3) 1:21 AM EDT (11/3)
Length of Visible Light 11h 55m
Length of Day
11h 08m
First Quarter, 60% of the Moon is Illuminated
Nov 3
First Quarter
Nov 10
Full
Nov 18
Last Quarter
Nov 25
New
Dec 2
First Quarter

Hourly Weather History & Observations

Time (EDT) Temp. Heat Index Dew Point Humidity Pressure Visibility Wind Dir Wind Speed Gust Speed Precip Events Conditions
12:53 AM 69.1 °F - 60.1 °F 73% 30.09 in 10.0 mi NE 6.9 mph - N/A   Clear
1:53 AM 66.0 °F - 60.1 °F 81% 30.07 in 10.0 mi ENE 5.8 mph - N/A   Clear
2:53 AM 66.9 °F - 59.0 °F 76% 30.05 in 10.0 mi NE 3.5 mph - N/A   Clear
3:53 AM 66.9 °F - 60.1 °F 79% 30.05 in 10.0 mi NNE 5.8 mph - N/A   Partly Cloudy
4:53 AM 68.0 °F - 61.0 °F 78% 30.05 in 10.0 mi NNE 5.8 mph - N/A   Clear
5:53 AM 68.0 °F - 61.0 °F 78% 30.06 in 10.0 mi NNE 4.6 mph - N/A   Clear
6:53 AM 66.9 °F - 61.0 °F 81% 30.06 in 10.0 mi NNE 5.8 mph - N/A   Clear
7:53 AM 66.9 °F - 62.1 °F 84% 30.08 in 10.0 mi NE 5.8 mph - N/A   Clear
8:53 AM 73.0 °F - 62.1 °F 68% 30.08 in 10.0 mi NE 8.1 mph - N/A   Clear
9:53 AM 78.1 °F - 60.1 °F 54% 30.09 in 10.0 mi ENE 10.4 mph - N/A   Clear
10:53 AM 80.1 °F 81.1 °F 61.0 °F 52% 30.09 in 10.0 mi East 13.8 mph - N/A   Clear
11:53 AM 80.1 °F 81.2 °F 62.1 °F 54% 30.07 in 10.0 mi East 15.0 mph - N/A   Partly Cloudy
12:53 PM 82.0 °F 83.4 °F 64.0 °F 54% 30.04 in 10.0 mi East 15.0 mph 21.9 mph N/A   Partly Cloudy
1:53 PM 82.0 °F 83.1 °F 63.0 °F 52% 30.02 in 10.0 mi ESE 11.5 mph 16.1 mph N/A   Partly Cloudy
2:53 PM 79.0 °F - 62.1 °F 56% 29.99 in 10.0 mi East 10.4 mph - N/A   Scattered Clouds
3:53 PM 81.0 °F 81.9 °F 62.1 °F 52% 29.97 in 10.0 mi East 9.2 mph - N/A   Clear
4:53 PM 80.1 °F 81.7 °F 64.0 °F 58% 29.98 in 10.0 mi ENE 10.4 mph - N/A   Partly Cloudy
5:53 PM 78.1 °F - 64.0 °F 62% 29.98 in 10.0 mi East 12.7 mph - N/A   Clear
6:53 PM 73.9 °F - 64.0 °F 71% 29.99 in 10.0 mi East 8.1 mph - N/A   Partly Cloudy
7:53 PM 72.0 °F - 64.0 °F 76% 29.99 in 10.0 mi East 5.8 mph - N/A   Clear
8:53 PM 71.1 °F - 64.0 °F 78% 29.99 in 10.0 mi East 5.8 mph - N/A   Clear
9:53 PM 69.8 °F - 64.4 °F 83% 29.99 in 10.0 mi East 4.6 mph - N/A   Clear
10:53 PM 68.0 °F - 64.0 °F 87% 29.99 in 10.0 mi Calm Calm - N/A   Clear
11:53 PM 69.1 °F - 64.9 °F 87% 29.99 in 10.0 mi Calm Calm - N/A   Partly Cloudy